| time (UTC) | temp C | wind direction | speed KPH | gust KPH | rain 1hr cm | rain 24hr cm | rain mn cm | humidity % | barometer mb |
| 20260505195540 | 26 | 206 | 12.9 | 35.4 | 0.00 | 0.00 | 0.00 | 44 | 1007.8 |
| 20260505195041 | 26 | 133 | 16.1 | 32.2 | 0.00 | 0.00 | 0.00 | 45 | 1007.9 |
| 20260505194605 | 26 | 149 | 12.9 | 35.4 | 0.00 | 0.00 | 0.00 | 42 | 1007.8 |
| 20260505194042 | 26 | 177 | 19.3 | 37.0 | 0.00 | 0.00 | 0.00 | 42 | 1008.0 |
| 20260505193543 | 26 | 181 | 19.3 | 37.0 | 0.00 | 0.00 | 0.00 | 41 | 1008.1 |
| 20260505193052 | 27 | 148 | 12.9 | 33.8 | 0.00 | 0.00 | 0.00 | 41 | 1008.0 |
| 20260505192543 | 27 | 215 | 9.7 | 27.4 | 0.00 | 0.00 | 0.00 | 40 | 1008.1 |
| 20260505192041 | 27 | 211 | 12.9 | 30.6 | 0.00 | 0.00 | 0.00 | 43 | 1008.1 |
| 20260505191550 | 27 | 175 | 14.5 | 30.6 | 0.00 | 0.00 | 0.00 | 43 | 1008.2 |
| 20260505191041 | 27 | 160 | 9.7 | 30.6 | 0.00 | 0.00 | 0.00 | 44 | 1008.1 |
| 20260505190541 | 27 | 182 | 8.0 | 32.2 | 0.00 | 0.00 | 0.00 | 45 | 1008.3 |
| 20260505190049 | 27 | 196 | 12.9 | 32.2 | 0.00 | 0.00 | 0.00 | 42 | 1008.3 |
| 20260505185541 | 26 | 186 | 9.7 | 29.0 | 0.00 | 0.00 | 0.00 | 41 | 1008.4 |
| 20260505185041 | 26 | 178 | 9.7 | 32.2 | 0.00 | 0.00 | 0.00 | 44 | 1008.4 |
| 20260505184547 | 26 | 199 | 9.7 | 32.2 | 0.00 | 0.00 | 0.00 | 45 | 1008.5 |
| 20260505184041 | 26 | 204 | 14.5 | 32.2 | 0.00 | 0.00 | 0.00 | 41 | 1008.6 |
| 20260505183544 | 26 | 142 | 11.3 | 30.6 | 0.00 | 0.00 | 0.00 | 43 | 1008.6 |
| 20260505183054 | 26 | 183 | 17.7 | 43.5 | 0.00 | 0.00 | 0.00 | 41 | 1008.7 |
| 20260505182541 | 26 | 173 | 17.7 | 43.5 | 0.00 | 0.00 | 0.00 | 41 | 1008.7 |
| 20260505182041 | 26 | 171 | 14.5 | 37.0 | 0.00 | 0.00 | 0.00 | 43 | 1008.7 |
| 20260505181550 | 26 | 180 | 11.3 | 40.2 | 0.00 | 0.00 | 0.00 | 42 | 1008.7 |
| 20260505181045 | 26 | 169 | 17.7 | 40.2 | 0.00 | 0.00 | 0.00 | 45 | 1008.8 |
| 20260505180546 | 26 | 229 | 11.3 | 30.6 | 0.00 | 0.00 | 0.00 | 42 | 1008.8 |
| 20260505180107 | 26 | 183 | 14.5 | 30.6 | 0.00 | 0.00 | 0.00 | 45 | 1008.9 |
| 20260505175541 | 26 | 194 | 14.5 | 30.6 | 0.00 | 0.00 | 0.00 | 44 | 1008.9 |
| 20260505175043 | 26 | 196 | 11.3 | 22.5 | 0.00 | 0.00 | 0.00 | 47 | 1008.9 |
| 20260505174600 | 26 | 202 | 9.7 | 32.2 | 0.00 | 0.00 | 0.00 | 46 | 1009.0 |
| 20260505174042 | 26 | 211 | 9.7 | 32.2 | 0.00 | 0.00 | 0.00 | 44 | 1009.1 |
| 20260505173540 | 26 | 198 | 9.7 | 30.6 | 0.00 | 0.00 | 0.00 | 44 | 1008.9 |
| 20260505173046 | 25 | 199 | 9.7 | 32.2 | 0.00 | 0.00 | 0.00 | 46 | 1009.0 |
| 20260505172540 | 25 | 200 | 9.7 | 35.4 | 0.00 | 0.00 | 0.00 | 45 | 1009.0 |
| 20260505172040 | 25 | 168 | 17.7 | 40.2 | 0.00 | 0.00 | 0.00 | 46 | 1009.2 |
| 20260505171552 | 25 | 188 | 14.5 | 40.2 | 0.00 | 0.00 | 0.00 | 45 | 1009.2 |
| 20260505171044 | 25 | 215 | 19.3 | 35.4 | 0.00 | 0.00 | 0.00 | 44 | 1009.2 |
| 20260505170545 | 25 | 208 | 12.9 | 27.4 | 0.00 | 0.00 | 0.00 | 50 | 1009.3 |
| 20260505170055 | 25 | 184 | 12.9 | 29.0 | 0.00 | 0.00 | 0.00 | 46 | 1009.6 |
| 20260505165541 | 25 | 212 | 14.5 | 29.0 | 0.00 | 0.00 | 0.00 | 46 | 1009.5 |
| 20260505165041 | 25 | 173 | 12.9 | 27.4 | 0.00 | 0.00 | 0.00 | 46 | 1009.5 |
| 20260505164552 | 25 | 174 | 9.7 | 32.2 | 0.00 | 0.00 | 0.00 | 48 | 1009.6 |
| 20260505164043 | 25 | 185 | 12.9 | 32.2 | 0.00 | 0.00 | 0.00 | 45 | 1009.7 |
| 20260505163541 | 25 | 208 | 9.7 | 35.4 | 0.00 | 0.00 | 0.00 | 47 | 1009.9 |
| 20260505163055 | 25 | 261 | 11.3 | 35.4 | 0.00 | 0.00 | 0.00 | 53 | 1009.8 |
| 20260505162540 | 25 | 186 | 11.3 | 29.0 | 0.00 | 0.00 | 0.00 | 48 | 1010.1 |
| 20260505162041 | 25 | 167 | 9.7 | 33.8 | 0.00 | 0.00 | 0.00 | 49 | 1010.1 |
| 20260505161607 | 25 | 192 | 11.3 | 40.2 | 0.00 | 0.00 | 0.00 | 47 | 1010.1 |
| 20260505161042 | 25 | 164 | 19.3 | 40.2 | 0.00 | 0.00 | 0.00 | 49 | 1010.1 |
| 20260505160542 | 25 | 221 | 14.5 | 32.2 | 0.00 | 0.00 | 0.00 | 48 | 1010.2 |
| 20260505153052 | 24 | 180 | 11.3 | 29.0 | 0.00 | 0.00 | 0.00 | 46 | 1010.3 |
| 20260505152542 | 24 | 196 | 9.7 | 45.1 | 0.00 | 0.00 | 0.00 | 50 | 1010.3 |
| 20260505152041 | 24 | 212 | 17.7 | 45.1 | 0.00 | 0.00 | 0.00 | 50 | 1010.3 |
| 20260505151549 | 23 | 234 | 11.3 | 37.0 | 0.00 | 0.00 | 0.00 | 51 | 1010.4 |
| 20260505151041 | 23 | 225 | 17.7 | 37.0 | 0.00 | 0.00 | 0.00 | 47 | 1010.4 |
| 20260505150542 | 23 | 244 | 14.5 | 41.8 | 0.00 | 0.00 | 0.00 | 51 | 1010.3 |
| 20260505140538 | 21 | 108 | 6.4 | 16.1 | 0.00 | 0.00 | 0.00 | 66 | 1010.6 |
| 20260505125040 | 17 | 102 | 8.0 | 14.5 | 0.00 | 0.00 | 0.00 | 71 | 1011.3 |
| 20260505124547 | 17 | 114 | 9.7 | 14.5 | 0.00 | 0.00 | 0.00 | 73 | 1011.3 |
| 20260505124042 | 16 | 123 | 8.0 | 14.5 | 0.00 | 0.00 | 0.00 | 75 | 1011.5 |
| 20260505123542 | 16 | 101 | 9.7 | 14.5 | 0.00 | 0.00 | 0.00 | 73 | 1011.4 |
| 20260505123100 | 16 | 109 | 9.7 | 14.5 | 0.00 | 0.00 | 0.00 | 74 | 1011.5 |
| 20260505122539 | 16 | 95 | 8.0 | 12.9 | 0.00 | 0.00 | 0.00 | 74 | 1011.6 |
| 20260505122040 | 16 | 123 | 6.4 | 11.3 | 0.00 | 0.00 | 0.00 | 76 | 1011.6 |
| 20260505121549 | 15 | 100 | 3.2 | 11.3 | 0.00 | 0.00 | 0.00 | 77 | 1011.6 |
| 20260505121039 | 15 | 119 | 4.8 | 11.3 | 0.00 | 0.00 | 0.00 | 75 | 1011.4 |
| 20260505120541 | 15 | 108 | 6.4 | 11.3 | 0.00 | 0.00 | 0.00 | 75 | 1011.4 |
| 20260505120053 | 15 | 79 | 0.0 | 6.4 | 0.00 | 0.00 | 0.00 | 76 | 1011.4 |
| 20260505115538 | 15 | 79 | 3.2 | 6.4 | 0.00 | 0.00 | 0.00 | 77 | 1011.3 |
| 20260505115039 | 15 | 77 | 3.2 | 6.4 | 0.00 | 0.00 | 0.00 | 77 | 1011.2 |
| 20260505114552 | 14 | 0 | 0.0 | 6.4 | 0.00 | 0.00 | 0.00 | 78 | 1011.2 |
| 20260505114042 | 14 | 0 | 0.0 | 6.4 | 0.00 | 0.00 | 0.00 | 80 | 1011.1 |
| 20260505113542 | 13 | 79 | 0.0 | 4.8 | 0.00 | 0.00 | 0.00 | 80 | 1011.1 |
| 20260505113044 | 13 | 0 | 0.0 | 4.8 | 0.00 | 0.00 | 0.00 | 81 | 1011.0 |
| 20260505112541 | 13 | 79 | 1.6 | 6.4 | 0.00 | 0.00 | 0.00 | 81 | 1011.0 |
| 20260505112042 | 13 | 79 | 0.0 | 6.4 | 0.00 | 0.00 | 0.00 | 82 | 1010.9 |
| 20260505111544 | 12 | 0 | 1.6 | 6.4 | 0.00 | 0.00 | 0.00 | 83 | 1011.0 |
| 20260505111039 | 12 | 0 | 0.0 | 4.8 | 0.00 | 0.00 | 0.00 | 83 | 1010.8 |
| 20260505110538 | 12 | 84 | 0.0 | 4.8 | 0.00 | 0.00 | 0.00 | 82 | 1010.7 |
| 20260505102041 | 11 | 84 | 1.6 | 9.7 | 0.00 | 0.00 | 0.00 | 81 | 1010.1 |
| 20260505101545 | 11 | 0 | 1.6 | 9.7 | 0.00 | 0.00 | 0.00 | 81 | 1010.1 |
| 20260505101038 | 12 | 342 | 1.6 | 6.4 | 0.00 | 0.00 | 0.00 | 80 | 1010.2 |
| 20260505100541 | 12 | 0 | 1.6 | 6.4 | 0.00 | 0.00 | 0.00 | 80 | 1010.1 |
| 20260505100053 | 12 | 41 | 1.6 | 9.7 | 0.00 | 0.00 | 0.00 | 79 | 1010.0 |
| 20260505095542 | 12 | 39 | 0.0 | 9.7 | 0.00 | 0.00 | 0.00 | 79 | 1010.0 |
| 20260505095038 | 12 | 38 | 3.2 | 9.7 | 0.00 | 0.00 | 0.00 | 78 | 1010.0 |
| 20260505094553 | 12 | 0 | 3.2 | 11.3 | 0.00 | 0.00 | 0.00 | 77 | 1010.0 |
| 20260505094038 | 13 | 0 | 1.6 | 14.5 | 0.00 | 0.00 | 0.00 | 76 | 1010.0 |
| 20260505093538 | 13 | 100 | 1.6 | 14.5 | 0.00 | 0.00 | 0.00 | 73 | 1009.9 |
| 20260505093051 | 15 | 106 | 9.7 | 19.3 | 0.00 | 0.00 | 0.00 | 69 | 1009.8 |
| 20260505092538 | 17 | 94 | 9.7 | 20.9 | 0.00 | 0.00 | 0.00 | 65 | 1009.9 |
| 20260505092038 | 17 | 202 | 8.0 | 25.7 | 0.00 | 0.00 | 0.00 | 63 | 1009.8 |
| 20260505091606 | 16 | 212 | 9.7 | 25.7 | 0.00 | 0.00 | 0.00 | 66 | 1009.6 |
| 20260505091041 | 15 | 176 | 6.4 | 25.7 | 0.00 | 0.00 | 0.00 | 70 | 1009.5 |
| 20260505090541 | 14 | 201 | 8.0 | 22.5 | 0.00 | 0.00 | 0.00 | 76 | 1009.5 |
| 20260505090047 | 11 | 154 | 6.4 | 19.3 | 0.00 | 0.00 | 0.00 | 84 | 1009.5 |
| 20260505085541 | 10 | 227 | 4.8 | 14.5 | 0.00 | 0.00 | 0.00 | 88 | 1009.5 |
| 20260505085039 | 10 | 116 | 3.2 | 8.0 | 0.00 | 0.00 | 0.00 | 87 | 1009.5 |
| 20260505084545 | 10 | 0 | 0.0 | 4.8 | 0.00 | 0.00 | 0.00 | 87 | 1009.6 |
| 20260505084039 | 10 | 0 | 0.0 | 4.8 | 0.00 | 0.00 | 0.00 | 87 | 1009.8 |
| 20260505083538 | 10 | 22 | 1.6 | 4.8 | 0.00 | 0.00 | 0.00 | 85 | 1009.7 |
| 20260505083051 | 10 | 22 | 1.6 | 4.8 | 0.00 | 0.00 | 0.00 | 86 | 1009.6 |
| 20260505082538 | 10 | 0 | 0.0 | 4.8 | 0.00 | 0.00 | 0.00 | 87 | 1009.6 |
| 20260505082041 | 10 | 22 | 0.0 | 4.8 | 0.00 | 0.00 | 0.00 | 87 | 1009.7 |
| 20260505081800 | 10 | 22 | 0.0 | 6.4 | 0.00 | 0.00 | 0.00 | 86 | 1009.8 |
| 20260505081559 | 10 | 22 | 0.0 | 6.4 | 0.00 | 0.00 | 0.00 | 86 | 1009.8 |
| 20260505081041 | 10 | 22 | 0.0 | 6.4 | 0.00 | 0.00 | 0.00 | 86 | 1009.8 |
| 20260505080541 | 10 | 22 | 3.2 | 6.4 | 0.00 | 0.00 | 0.00 | 86 | 1009.8 |
| 20260505075541 | 10 | 22 | 0.0 | 6.4 | 0.00 | 0.00 | 0.00 | 85 | 1009.7 |
| 20260505075042 | 10 | 0 | 1.6 | 6.4 | 0.00 | 0.00 | 0.00 | 86 | 1009.7 |
| 20260505074548 | 10 | 5 | 0.0 | 3.2 | 0.00 | 0.00 | 0.00 | 86 | 1009.6 |
| 20260505074041 | 10 | 0 | 0.0 | 3.2 | 0.00 | 0.00 | 0.00 | 86 | 1009.4 |
| 20260505073541 | 10 | 0 | 0.0 | 3.2 | 0.00 | 0.00 | 0.00 | 86 | 1009.4 |
| 20260505073048 | 10 | 0 | 0.0 | 3.2 | 0.00 | 0.00 | 0.00 | 86 | 1009.4 |
| 20260505072540 | 10 | 5 | 0.0 | 4.8 | 0.00 | 0.00 | 0.00 | 86 | 1009.4 |
| 20260505072040 | 10 | 0 | 0.0 | 4.8 | 0.00 | 0.00 | 0.00 | 86 | 1009.4 |
| 20260505071557 | 10 | 5 | 3.2 | 8.0 | 0.00 | 0.00 | 0.00 | 85 | 1009.4 |
| 20260505071042 | 10 | 5 | 3.2 | 8.0 | 0.00 | 0.00 | 0.00 | 83 | 1009.5 |
| 20260505070542 | 10 | 5 | 3.2 | 6.4 | 0.00 | 0.00 | 0.00 | 83 | 1009.5 |
| 20260505070049 | 11 | 5 | 3.2 | 6.4 | 0.00 | 0.00 | 0.00 | 83 | 1009.4 |
| 20260505065542 | 11 | 5 | 1.6 | 4.8 | 0.00 | 0.00 | 0.00 | 83 | 1009.4 |
| 20260505065041 | 11 | 0 | 0.0 | 3.2 | 0.00 | 0.00 | 0.00 | 83 | 1009.5 |
| 20260505064543 | 11 | 0 | 0.0 | 3.2 | 0.00 | 0.00 | 0.00 | 83 | 1009.5 |
| 20260505064044 | 11 | 0 | 1.6 | 4.8 | 0.00 | 0.00 | 0.00 | 83 | 1009.4 |
| 20260505063541 | 11 | 5 | 1.6 | 6.4 | 0.00 | 0.00 | 0.00 | 83 | 1009.5 |
| 20260505063105 | 11 | 5 | 3.2 | 6.4 | 0.00 | 0.00 | 0.00 | 82 | 1009.6 |
| 20260505062541 | 11 | 5 | 3.2 | 6.4 | 0.00 | 0.00 | 0.00 | 81 | 1009.6 |
| 20260505062040 | 12 | 5 | 1.6 | 4.8 | 0.00 | 0.00 | 0.00 | 79 | 1009.7 |
| 20260505061612 | 12 | 5 | 0.0 | 4.8 | 0.00 | 0.00 | 0.00 | 77 | 1009.7 |
| 20260505061041 | 12 | 5 | 1.6 | 4.8 | 0.00 | 0.00 | 0.00 | 77 | 1009.6 |
| 20260505060541 | 13 | 0 | 0.0 | 4.8 | 0.00 | 0.00 | 0.00 | 76 | 1009.6 |
| 20260505060055 | 13 | 0 | 0.0 | 4.8 | 0.00 | 0.00 | 0.00 | 75 | 1009.6 |
| 20260505055541 | 13 | 0 | 0.0 | 4.8 | 0.00 | 0.00 | 0.00 | 75 | 1009.7 |
| 20260505055041 | 13 | 0 | 1.6 | 4.8 | 0.00 | 0.00 | 0.00 | 74 | 1009.7 |
| 20260505054606 | 14 | 109 | 0.0 | 3.2 | 0.00 | 0.00 | 0.00 | 73 | 1009.7 |
| 20260505054039 | 15 | 0 | 0.0 | 3.2 | 0.00 | 0.00 | 0.00 | 71 | 1009.7 |
| 20260505053539 | 15 | 0 | 0.0 | 6.4 | 0.00 | 0.00 | 0.00 | 69 | 1009.6 |
| 20260505053045 | 15 | 0 | 1.6 | 9.7 | 0.00 | 0.00 | 0.00 | 69 | 1009.7 |
| 20260505052540 | 16 | 109 | 3.2 | 11.3 | 0.00 | 0.00 | 0.00 | 68 | 1009.6 |
| 20260505052152 | 16 | 121 | 4.8 | 11.3 | 0.00 | 0.00 | 0.00 | 67 | 1009.7 |
| 20260505051611 | 16 | 148 | 3.2 | 11.3 | 0.00 | 0.00 | 0.00 | 66 | 1009.7 |
| 20260505051041 | 17 | 186 | 1.6 | 12.9 | 0.00 | 0.00 | 0.00 | 65 | 1009.6 |
| 20260505050540 | 17 | 187 | 3.2 | 12.9 | 0.00 | 0.00 | 0.00 | 63 | 1009.7 |
| 20260505041556 | 17 | 194 | 0.0 | 12.9 | 0.00 | 0.00 | 0.00 | 64 | 1009.5 |
| 20260505041041 | 17 | 221 | 3.2 | 14.5 | 0.00 | 0.00 | 0.00 | 63 | 1009.5 |
| 20260505040544 | 17 | 200 | 6.4 | 14.5 | 0.00 | 0.00 | 0.00 | 63 | 1009.5 |
| 20260505040053 | 17 | 167 | 6.4 | 14.5 | 0.00 | 0.00 | 0.00 | 63 | 1009.5 |
| 20260505035540 | 17 | 207 | 3.2 | 12.9 | 0.00 | 0.00 | 0.00 | 63 | 1009.5 |
| 20260505035041 | 17 | 195 | 4.8 | 14.5 | 0.00 | 0.00 | 0.00 | 63 | 1009.5 |
| 20260505034549 | 17 | 231 | 4.8 | 14.5 | 0.00 | 0.00 | 0.00 | 63 | 1009.5 |
| 20260505034038 | 17 | 193 | 3.2 | 9.7 | 0.00 | 0.00 | 0.00 | 63 | 1009.5 |
| 20260505033538 | 17 | 254 | 3.2 | 12.9 | 0.00 | 0.00 | 0.00 | 65 | 1009.5 |
| 20260505033049 | 16 | 227 | 3.2 | 12.9 | 0.00 | 0.00 | 0.00 | 66 | 1009.5 |
| 20260505032541 | 16 | 197 | 4.8 | 12.9 | 0.00 | 0.00 | 0.00 | 67 | 1009.6 |
| 20260505032042 | 15 | 256 | 1.6 | 12.9 | 0.00 | 0.00 | 0.00 | 70 | 1009.5 |
| 20260505031553 | 14 | 203 | 3.2 | 9.7 | 0.00 | 0.00 | 0.00 | 73 | 1009.6 |
| 20260505031040 | 14 | 213 | 0.0 | 6.4 | 0.00 | 0.00 | 0.00 | 73 | 1009.6 |
| 20260505030543 | 14 | 0 | 1.6 | 6.4 | 0.00 | 0.00 | 0.00 | 73 | 1009.6 |
| 20260505030055 | 14 | 0 | 0.0 | 4.8 | 0.00 | 0.00 | 0.00 | 72 | 1009.5 |
| 20260505025541 | 15 | 0 | 0.0 | 3.2 | 0.00 | 0.00 | 0.00 | 71 | 1009.5 |
| 20260505025040 | 15 | 0 | 0.0 | 3.2 | 0.00 | 0.00 | 0.00 | 70 | 1009.5 |
| 20260505024548 | 15 | 200 | 0.0 | 4.8 | 0.00 | 0.00 | 0.00 | 68 | 1009.6 |
| 20260505024042 | 15 | 0 | 0.0 | 4.8 | 0.00 | 0.00 | 0.00 | 67 | 1009.6 |
| 20260505023540 | 16 | 0 | 0.0 | 6.4 | 0.00 | 0.00 | 0.00 | 66 | 1009.4 |
| 20260505023043 | 16 | 200 | 1.6 | 8.0 | 0.00 | 0.00 | 0.00 | 65 | 1009.4 |
| 20260505022541 | 16 | 202 | 1.6 | 9.7 | 0.00 | 0.00 | 0.00 | 65 | 1009.5 |
| 20260505022038 | 16 | 0 | 1.6 | 9.7 | 0.00 | 0.00 | 0.00 | 64 | 1009.3 |
| 20260505021552 | 17 | 182 | 1.6 | 8.0 | 0.00 | 0.00 | 0.00 | 63 | 1009.3 |
| 20260505021038 | 17 | 201 | 1.6 | 6.4 | 0.00 | 0.00 | 0.00 | 62 | 1009.4 |
| 20260505020541 | 17 | 180 | 1.6 | 9.7 | 0.00 | 0.00 | 0.00 | 62 | 1009.5 |
| 20260505020052 | 17 | 198 | 3.2 | 11.3 | 0.00 | 0.00 | 0.00 | 61 | 1009.5 |
| 20260505015542 | 17 | 213 | 3.2 | 11.3 | 0.00 | 0.00 | 0.00 | 61 | 1009.6 |
| 20260505015038 | 17 | 187 | 4.8 | 11.3 | 0.00 | 0.00 | 0.00 | 61 | 1009.5 |
| 20260505014549 | 17 | 169 | 0.0 | 12.9 | 0.00 | 0.00 | 0.00 | 60 | 1009.4 |
| 20260505014040 | 17 | 217 | 4.8 | 20.9 | 0.00 | 0.00 | 0.00 | 61 | 1009.4 |
| 20260505013537 | 17 | 180 | 3.2 | 20.9 | 0.00 | 0.00 | 0.00 | 62 | 1009.3 |
| 20260505013057 | 16 | 196 | 4.8 | 16.1 | 0.00 | 0.00 | 0.00 | 64 | 1009.3 |
| 20260505012540 | 15 | 178 | 3.2 | 9.7 | 0.00 | 0.00 | 0.00 | 65 | 1009.2 |
| 20260505012040 | 15 | 0 | 1.6 | 4.8 | 0.00 | 0.00 | 0.00 | 65 | 1009.3 |
| 20260505011553 | 15 | 0 | 1.6 | 4.8 | 0.00 | 0.00 | 0.00 | 64 | 1008.8 |
| 20260505011042 | 15 | 0 | 0.0 | 1.6 | 0.00 | 0.00 | 0.00 | 65 | 1009.0 |
| 20260505010540 | 15 | 0 | 0.0 | 3.2 | 0.00 | 0.00 | 0.00 | 65 | 1009.0 |
| 20260505010109 | 15 | 0 | 0.0 | 3.2 | 0.00 | 0.00 | 0.00 | 64 | 1008.9 |
| 20260505005538 | 16 | 0 | 0.0 | 3.2 | 0.00 | 0.00 | 0.00 | 63 | 1009.1 |
| 20260505005040 | 16 | 197 | 0.0 | 3.2 | 0.00 | 0.00 | 0.00 | 62 | 1008.9 |
| 20260505004548 | 16 | 0 | 0.0 | 0.0 | 0.00 | 0.00 | 0.00 | 60 | 1009.0 |
| 20260505004040 | 17 | 0 | 0.0 | 0.0 | 0.00 | 0.00 | 0.00 | 60 | 1008.8 |
| 20260505003538 | 17 | 0 | 0.0 | 3.2 | 0.00 | 0.00 | 0.00 | 58 | 1008.7 |
| 20260505003056 | 17 | 0 | 0.0 | 6.4 | 0.00 | 0.00 | 0.00 | 58 | 1008.7 |
| 20260505002540 | 18 | 199 | 0.0 | 9.7 | 0.00 | 0.00 | 0.00 | 56 | 1008.7 |
| 20260505002041 | 18 | 199 | 3.2 | 9.7 | 0.00 | 0.00 | 0.00 | 54 | 1008.6 |
| 20260505001550 | 18 | 198 | 4.8 | 11.3 | 0.00 | 0.00 | 0.00 | 53 | 1008.6 |
| 20260505001037 | 18 | 176 | 4.8 | 12.9 | 0.00 | 0.00 | 0.00 | 52 | 1008.5 |
| 20260505000540 | 19 | 186 | 4.8 | 12.9 | 0.00 | 0.00 | 0.00 | 52 | 1008.5 |
| 20260505000054 | 19 | 188 | 4.8 | 12.9 | 0.00 | 0.00 | 0.00 | 51 | 1008.6 |
| 20260504235540 | 20 | 179 | 4.8 | 14.5 | 0.00 | 0.00 | 0.00 | 50 | 1008.6 |
| 20260504235040 | 20 | 188 | 6.4 | 14.5 | 0.00 | 0.00 | 0.00 | 50 | 1008.6 |
| 20260504234549 | 20 | 186 | 4.8 | 12.9 | 0.00 | 0.00 | 0.00 | 48 | 1008.5 |
| 20260504234041 | 20 | 181 | 4.8 | 12.9 | 0.00 | 0.00 | 0.00 | 48 | 1008.3 |
| 20260504233541 | 21 | 163 | 4.8 | 14.5 | 0.00 | 0.00 | 0.00 | 48 | 1008.5 |
| 20260504233101 | 21 | 142 | 6.4 | 20.9 | 0.00 | 0.00 | 0.00 | 47 | 1008.3 |
| 20260504232541 | 21 | 153 | 8.0 | 22.5 | 0.00 | 0.00 | 0.00 | 46 | 1008.4 |
| 20260504232041 | 21 | 178 | 8.0 | 22.5 | 0.00 | 0.00 | 0.00 | 46 | 1008.5 |
| 20260504231548 | 21 | 186 | 4.8 | 17.7 | 0.00 | 0.00 | 0.00 | 46 | 1008.4 |
| 20260504231041 | 21 | 192 | 6.4 | 24.1 | 0.00 | 0.00 | 0.00 | 46 | 1008.4 |
| 20260504230541 | 21 | 179 | 11.3 | 24.1 | 0.00 | 0.00 | 0.00 | 46 | 1008.4 |
| 20260504230056 | 22 | 179 | 8.0 | 20.9 | 0.00 | 0.00 | 0.00 | 47 | 1008.4 |
| 20260504225542 | 22 | 132 | 6.4 | 25.7 | 0.00 | 0.00 | 0.00 | 46 | 1008.5 |
| 20260504225041 | 22 | 173 | 9.7 | 25.7 | 0.00 | 0.00 | 0.00 | 46 | 1008.5 |
| 20260504224552 | 22 | 165 | 6.4 | 19.3 | 0.00 | 0.00 | 0.00 | 46 | 1008.4 |
| 20260504224043 | 22 | 148 | 9.7 | 19.3 | 0.00 | 0.00 | 0.00 | 46 | 1008.4 |
| 20260504223541 | 22 | 169 | 6.4 | 20.9 | 0.00 | 0.00 | 0.00 | 47 | 1008.3 |
| 20260504223047 | 21 | 168 | 9.7 | 20.9 | 0.00 | 0.00 | 0.00 | 46 | 1008.5 |
| 20260504222541 | 21 | 150 | 6.4 | 19.3 | 0.00 | 0.00 | 0.00 | 46 | 1008.5 |
| 20260504222038 | 21 | 165 | 4.8 | 16.1 | 0.00 | 0.00 | 0.00 | 47 | 1008.5 |
| 20260504221546 | 21 | 165 | 6.4 | 17.7 | 0.00 | 0.00 | 0.00 | 47 | 1008.5 |
| 20260504221040 | 21 | 175 | 6.4 | 17.7 | 0.00 | 0.00 | 0.00 | 47 | 1008.5 |
| 20260504220541 | 21 | 165 | 6.4 | 27.4 | 0.00 | 0.00 | 0.00 | 46 | 1008.6 |
| 20260504220052 | 22 | 132 | 12.9 | 27.4 | 0.00 | 0.00 | 0.00 | 44 | 1008.6 |
| 20260504215543 | 22 | 138 | 11.3 | 24.1 | 0.00 | 0.00 | 0.00 | 45 | 1008.5 |
| 20260504215040 | 22 | 121 | 14.5 | 24.1 | 0.00 | 0.00 | 0.00 | 44 | 1008.6 |
| 20260504214556 | 22 | 138 | 9.7 | 22.5 | 0.00 | 0.00 | 0.00 | 46 | 1008.5 |
| 20260504214045 | 22 | 150 | 9.7 | 24.1 | 0.00 | 0.00 | 0.00 | 45 | 1008.5 |
| 20260504213545 | 22 | 126 | 9.7 | 24.1 | 0.00 | 0.00 | 0.00 | 47 | 1008.5 |
| 20260504213057 | 21 | 155 | 9.7 | 25.7 | 0.00 | 0.00 | 0.00 | 45 | 1008.4 |
| 20260504212541 | 21 | 163 | 11.3 | 25.7 | 0.00 | 0.00 | 0.00 | 45 | 1008.5 |
| 20260504212043 | 22 | 107 | 9.7 | 25.7 | 0.00 | 0.00 | 0.00 | 46 | 1008.5 |
| 20260504211546 | 22 | 156 | 14.5 | 25.7 | 0.00 | 0.00 | 0.00 | 45 | 1008.4 |
| 20260504211041 | 22 | 166 | 12.9 | 25.7 | 0.00 | 0.00 | 0.00 | 43 | 1008.3 |
| 20260504210540 | 22 | 176 | 12.9 | 25.7 | 0.00 | 0.00 | 0.00 | 42 | 1008.2 |
| 20260504210106 | 22 | 182 | 12.9 | 29.0 | 0.00 | 0.00 | 0.00 | 43 | 1008.3 |
| 20260504205537 | 22 | 117 | 12.9 | 29.0 | 0.00 | 0.00 | 0.00 | 44 | 1008.3 |
| 20260504205042 | 22 | 166 | 9.7 | 27.4 | 0.00 | 0.00 | 0.00 | 45 | 1008.4 |
| 20260504204559 | 22 | 169 | 12.9 | 27.4 | 0.00 | 0.00 | 0.00 | 42 | 1008.3 |
| 20260504204040 | 23 | 159 | 6.4 | 25.7 | 0.00 | 0.00 | 0.00 | 44 | 1008.3 |
| 20260504203540 | 22 | 179 | 9.7 | 25.7 | 0.00 | 0.00 | 0.00 | 42 | 1008.3 |
| 20260504203104 | 22 | 198 | 9.7 | 27.4 | 0.00 | 0.00 | 0.00 | 41 | 1008.3 |
| 20260504202542 | 23 | 203 | 11.3 | 27.4 | 0.00 | 0.00 | 0.00 | 45 | 1008.5 |
| 20260504202042 | 23 | 157 | 8.0 | 22.5 | 0.00 | 0.00 | 0.00 | 46 | 1008.5 |
| 20260504201554 | 23 | 165 | 11.3 | 20.9 | 0.00 | 0.00 | 0.00 | 43 | 1008.5 |
| 20260504201042 | 22 | 188 | 3.2 | 27.4 | 0.00 | 0.00 | 0.00 | 42 | 1008.5 |
| 20260504200541 | 22 | 186 | 12.9 | 30.6 | 0.00 | 0.00 | 0.00 | 42 | 1008.7 |